Location: ?ejeti?ky
(50.4060°N, 14.9016°E)
Time: 08:35:43
(UTC+00:00)

N. Korean satellite - Pass Details

Date: 09 December 2021
Orbit: 446 x 491 km, 97.3° (Epoch: 18 January)

Event Time Altitude Azimuth Distance (km) Brightness Sun altitude
Rises 03:54:44 0° 20° (NNE) 2,465 10.3 -26.5°
Reaches altitude 10° 03:56:53 10° 29° (NNE) 1,586 9.4 -26.1°
Maximum altitude 04:00:02 36° 98° (E) 728 7.9 -25.6°
Drops below altitude 10° 04:03:11 10° 167° (SSE) 1,574 9.4 -25.1°
Sets 04:05:19 0° 176° (S) 2,444 10.3 -24.8°
